FW0333 Weather Reports


time (UTC)temp
C
wind
direction
speed
KPH
gust
KPH
rain 1hr
cm
rain 24hr
cm
rain mn
cm
humidity
%
barometer
mb
20260505201448 13 173 0.0 1.6 0.00 0.05 0.05 85 1016.3
20260505195948 13 218 0.0 1.6 0.00 0.05 0.05 87 1016.4
20260505195448 13 151 0.0 0.0 0.00 0.05 0.05 86 1016.4
20260505194948 13 11 0.0 0.0 0.00 0.05 0.05 87 1016.4
20260505193946 13 41 0.0 0.0 0.00 0.05 0.05 85 1016.6
20260505193446 13 316 0.0 0.0 0.00 0.05 0.05 85 1016.5
20260505192945 13 183 0.0 0.0 0.00 0.05 0.05 86 1016.5
20260505192444 13 71 0.0 0.0 0.00 0.05 0.05 86 1016.4
20260505191941 13 89 0.0 1.6 0.00 0.05 0.05 86 1016.4
20260505190942 12 218 0.0 3.2 0.00 0.05 0.05 87 1016.4
20260505190441 12 137 0.0 0.0 0.00 0.05 0.05 87 1016.4
20260505185942 12 56 0.0 0.0 0.00 0.05 0.05 87 1016.3
20260505184937 12 38 0.0 0.0 0.00 0.05 0.05 88 1016.3
20260505184436 12 341 0.0 0.0 0.00 0.05 0.05 88 1016.3
20260505182935 12 172 0.0 0.0 0.00 0.05 0.05 87 1016.3
20260505182435 12 16 0.0 0.0 0.00 0.05 0.05 87 1016.4
20260505181936 12 103 0.0 0.0 0.00 0.05 0.05 87 1016.3
20260505181435 12 46 0.0 0.0 0.00 0.05 0.05 87 1016.3
20260505180936 12 80 0.0 0.0 0.00 0.05 0.05 87 1016.3
20260505175936 12 65 0.0 0.0 0.00 0.05 0.05 87 1016.2
20260505175436 12 65 0.0 0.0 0.00 0.05 0.05 86 1016.2
20260505174935 12 226 0.0 0.0 0.00 0.05 0.05 86 1016.1
20260505174435 12 16 0.0 0.0 0.00 0.05 0.05 85 1016.0
20260505173935 12 24 0.0 0.0 0.00 0.05 0.05 85 1015.9
20260505173435 12 24 0.0 0.0 0.00 0.05 0.05 84 1015.8
20260505172937 12 88 0.0 0.0 0.00 0.05 0.05 84 1015.7
20260505172436 12 206 0.0 0.0 0.00 0.05 0.05 84 1015.8
20260505171937 12 262 0.0 0.0 0.00 0.05 0.05 86 1015.7
20260505171436 12 6 0.0 0.0 0.00 0.05 0.05 86 1015.7
20260505170937 12 49 0.0 0.0 0.00 0.05 0.05 86 1015.7
20260505170437 12 6 0.0 0.0 0.00 0.05 0.05 86 1015.6
20260505165937 12 146 0.0 0.0 0.00 0.05 0.05 87 1015.6
20260505165437 12 145 0.0 0.0 0.00 0.05 0.05 85 1015.6
20260505164937 12 345 0.0 1.6 0.00 0.05 0.05 86 1015.6
20260505164437 12 205 0.0 1.6 0.00 0.05 0.05 85 1015.6
20260505163437 12 260 0.0 0.0 0.00 0.05 0.05 85 1015.6
20260505162937 12 259 0.0 1.6 0.00 0.05 0.05 86 1015.5
20260505161937 11 17 0.0 0.0 0.00 0.05 0.05 89 1015.5
20260505160936 11 207 0.0 0.0 0.00 0.05 0.05 92 1015.4
20260505160437 11 206 0.0 0.0 0.00 0.05 0.05 94 1015.4
20260505152931 10 259 0.0 0.0 0.00 0.05 0.05 96 1015.3
20260505152431 10 259 0.0 0.0 0.00 0.05 0.05 96 1015.2
20260505151931 10 259 0.0 0.0 0.00 0.05 0.05 96 1015.2
20260505151429 9 259 0.0 0.0 0.00 0.05 0.05 96 1015.2
20260505150929 9 259 0.0 0.0 0.00 0.05 0.05 96 1015.2
20260505150430 9 259 0.0 0.0 0.00 0.05 0.05 96 1015.2
20260505124917 8 271 0.0 0.0 0.00 0.05 0.05 95 1014.7
20260505124418 8 271 0.0 0.0 0.03 0.05 0.05 95 1014.8
20260505123917 8 276 0.0 0.0 0.03 0.05 0.05 95 1014.6
20260505123417 8 276 0.0 0.0 0.03 0.05 0.05 95 1014.6
20260505122417 8 276 0.0 0.0 0.03 0.05 0.05 95 1014.6
20260505121917 8 276 0.0 0.0 0.03 0.05 0.05 95 1014.6
20260505121417 8 276 0.0 0.0 0.03 0.05 0.05 95 1014.7
20260505120917 8 276 0.0 0.0 0.03 0.05 0.05 95 1014.7
20260505120414 8 276 0.0 0.0 0.03 0.05 0.05 95 1014.7
20260505115915 8 276 0.0 0.0 0.03 0.05 0.05 95 1014.7
20260505114915 8 276 0.0 0.0 0.03 0.05 0.05 95 1014.8
20260505114415 8 276 0.0 0.0 0.00 0.03 0.03 95 1014.8
20260505113914 8 276 0.0 0.0 0.03 0.03 0.03 95 1014.7
20260505112912 8 276 0.0 0.0 0.03 0.03 0.03 95 1014.8
20260505112413 8 276 0.0 0.0 0.03 0.03 0.03 95 1014.8
20260505111411 8 276 0.0 0.0 0.03 0.03 0.03 95 1014.8
20260505110910 8 276 0.0 0.0 0.03 0.03 0.03 95 1014.8
20260505110409 8 276 0.0 0.0 0.03 0.03 0.03 94 1014.7
20260505101903 8 276 0.0 0.0 0.00 0.00 0.00 94 1014.8
20260505101401 8 276 0.0 0.0 0.00 0.00 0.00 94 1014.9
20260505100902 8 276 0.0 0.0 0.00 0.00 0.00 94 1015.0
20260505100359 8 276 0.0 0.0 0.00 0.00 0.00 94 1014.9
20260505095900 8 276 0.0 0.0 0.00 0.00 0.00 94 1015.0
20260505095359 8 276 0.0 0.0 0.00 0.00 0.00 94 1015.0
20260505094858 8 276 0.0 0.0 0.00 0.00 0.00 93 1015.0
20260505093354 8 276 0.0 0.0 0.00 0.00 0.00 93 1015.1
20260505092853 8 276 0.0 0.0 0.00 0.00 0.00 93 1015.0
20260505092353 8 276 0.0 0.0 0.00 0.00 0.00 93 1014.9
20260505091852 8 276 0.0 0.0 0.00 0.00 0.00 93 1015.0
20260505091353 8 276 0.0 0.0 0.00 0.00 0.00 93 1015.1
20260505090853 8 276 0.0 0.0 0.00 0.00 0.00 93 1015.3
20260505085853 8 276 0.0 0.0 0.00 0.00 0.00 93 1015.3
20260505085352 8 276 0.0 0.0 0.00 0.00 0.00 93 1015.4
20260505084852 8 276 0.0 0.0 0.00 0.00 0.00 93 1015.4
20260505084353 8 276 0.0 0.0 0.00 0.00 0.00 93 1015.4
20260505083852 8 276 0.0 0.0 0.00 0.00 0.00 93 1015.5
20260505083352 8 276 0.0 0.0 0.00 0.00 0.00 93 1015.6
20260505081853 8 276 0.0 0.0 0.00 0.00 0.00 93 1015.5
20260505081352 8 276 0.0 0.0 0.00 0.00 0.00 93 1015.6
20260505080349 8 276 0.0 0.0 0.00 0.00 0.00 93 1015.7
20260505075849 8 276 0.0 0.0 0.00 0.00 0.00 93 1015.7
20260505074849 8 276 0.0 0.0 0.00 0.00 0.00 93 1015.7
20260505074348 8 276 0.0 0.0 0.00 0.00 0.00 93 1015.7
20260505073849 8 276 0.0 0.0 0.00 0.00 0.00 93 1015.7
20260505072846 8 276 0.0 0.0 0.00 0.00 0.00 93 1015.7
20260505072346 8 276 0.0 0.0 0.00 0.00 0.00 92 1015.7
20260505071846 8 276 0.0 0.0 0.00 0.00 0.00 92 1015.7
20260505070846 8 276 0.0 0.0 0.00 0.00 0.00 92 1015.4
20260505070346 8 276 0.0 0.0 0.00 0.00 0.00 92 1015.4
20260505065344 8 276 0.0 0.0 0.00 0.00 0.00 92 1015.4
20260505064341 8 276 0.0 0.0 0.00 0.00 0.00 92 1015.3
20260505063842 8 276 0.0 0.0 0.00 0.00 0.00 92 1015.5
20260505063343 8 276 0.0 0.0 0.00 0.00 0.00 92 1015.4
20260505062843 8 276 0.0 0.0 0.00 0.00 0.00 91 1015.2
20260505062342 8 276 0.0 0.0 0.00 0.00 0.00 91 1015.1
20260505061842 8 276 0.0 0.0 0.00 0.00 0.00 91 1015.1
20260505060341 8 276 0.0 0.0 0.00 0.00 0.00 91 1015.1
20260505055842 8 276 0.0 0.0 0.00 0.00 0.00 91 1015.2
20260505055341 9 276 0.0 0.0 0.00 0.00 0.00 90 1015.4
20260505054841 9 276 0.0 0.0 0.00 0.00 0.00 90 1015.3
20260505054342 9 276 0.0 0.0 0.00 0.00 0.00 90 1015.3
20260505053841 9 276 0.0 0.0 0.00 0.00 0.00 90 1015.4
20260505052841 9 276 0.0 0.0 0.00 0.00 0.00 89 1015.7
20260505052342 9 276 0.0 0.0 0.00 0.00 0.00 89 1015.6
20260505051841 9 276 0.0 0.0 0.00 0.00 0.00 89 1015.7
20260505051342 9 276 0.0 0.0 0.00 0.00 0.00 89 1015.8
20260505050841 9 276 0.0 0.0 0.00 0.00 0.00 88 1015.6
20260505050342 10 276 0.0 0.0 0.00 0.00 0.00 88 1015.7
20260505041339 10 276 0.0 0.0 0.00 0.00 0.00 86 1015.3
20260505040839 10 276 0.0 0.0 0.00 0.00 0.00 85 1015.3
20260505035339 10 276 0.0 0.0 0.00 0.00 0.00 85 1015.1
20260505034837 10 276 0.0 0.0 0.00 0.00 0.00 84 1015.0
20260505034337 11 276 0.0 0.0 0.00 0.00 0.00 84 1014.8
20260505033839 11 276 0.0 0.0 0.00 0.00 0.00 84 1014.7
20260505033336 11 276 0.0 0.0 0.00 0.00 0.00 84 1014.5
20260505032835 11 276 0.0 0.0 0.00 0.00 0.00 84 1014.5
20260505032335 11 276 0.0 0.0 0.00 0.00 0.00 85 1014.5
20260505031835 11 276 0.0 0.0 0.00 0.00 0.00 84 1014.6
20260505031335 11 266 0.0 0.0 0.00 0.00 0.00 84 1014.6
20260505030835 11 266 0.0 0.0 0.00 0.00 0.00 83 1014.6
20260505030337 11 266 0.0 0.0 0.00 0.00 0.00 82 1014.7
20260505025839 11 266 0.0 0.0 0.00 0.00 0.00 81 1014.6
20260505025335 11 266 0.0 0.0 0.00 0.00 0.00 81 1014.5
20260505024835 12 266 0.0 0.0 0.00 0.00 0.00 81 1014.6
20260505024333 12 266 0.0 0.0 0.00 0.00 0.00 81 1014.5
20260505023833 12 266 0.0 0.0 0.00 0.00 0.00 81 1014.4
20260505022833 12 304 0.0 0.0 0.00 0.00 0.00 79 1014.5
20260505021833 12 50 0.0 0.0 0.00 0.00 0.00 80 1014.7
20260505021333 12 31 0.0 0.0 0.00 0.00 0.00 80 1014.5
20260505020833 12 229 0.0 1.6 0.00 0.00 0.00 78 1014.4
20260505020333 12 240 0.0 1.6 0.00 0.00 0.00 78 1014.4
20260505015833 13 203 0.0 0.0 0.00 0.00 0.00 78 1014.4
20260505014331 13 63 0.0 0.0 0.00 0.00 0.00 78 1014.4
20260505013332 13 60 0.0 0.0 0.00 0.00 0.00 77 1014.4
20260505012831 13 60 0.0 0.0 0.00 0.00 0.00 77 1014.5
20260505011831 14 323 0.0 0.0 0.00 0.00 0.00 77 1014.5
20260505011331 14 6 0.0 0.0 0.00 0.00 0.00 76 1014.5
20260505010830 14 333 0.0 0.0 0.00 0.00 0.00 76 1014.6
20260505005829 14 215 0.0 0.0 0.00 0.00 0.00 77 1014.6
20260505005329 14 227 0.0 1.6 0.00 0.00 0.00 77 1014.6
20260505004828 14 186 0.0 1.6 0.00 0.00 0.00 77 1014.7
20260505004329 14 98 0.0 0.0 0.00 0.00 0.00 77 1014.7
20260505003329 14 333 0.0 1.6 0.00 0.00 0.00 76 1014.7
20260505002829 14 82 0.0 0.0 0.00 0.00 0.00 77 1014.8
20260505002329 13 172 0.0 0.0 0.00 0.00 0.00 78 1015.0
20260505001829 13 153 0.0 0.0 0.00 0.00 0.00 78 1014.8
20260505001328 13 207 0.0 0.0 0.00 0.00 0.00 78 1015.0
20260505000829 13 179 0.0 0.0 0.00 0.00 0.00 78 1015.0
20260505000327 13 179 0.0 0.0 0.00 0.00 0.00 77 1014.8
20260504235827 13 105 0.0 1.6 0.00 0.00 0.00 78 1015.0
20260504235326 13 219 0.0 1.6 0.00 0.00 0.00 77 1014.8
20260504234827 13 167 0.0 1.6 0.00 0.00 0.00 77 1014.8
20260504234324 13 54 0.0 0.0 0.00 0.00 0.00 77 1014.9
20260504233825 13 66 0.0 0.0 0.00 0.00 0.00 77 1014.9
20260504233322 13 283 0.0 1.6 0.00 0.00 0.00 78 1014.8
20260504232824 13 154 0.0 1.6 0.00 0.00 0.00 78 1014.9
20260504232322 13 209 0.0 1.6 0.00 0.00 0.00 78 1014.9
20260504231820 13 87 0.0 0.0 0.00 0.00 0.00 78 1014.9
20260504231319 13 98 0.0 0.0 0.00 0.00 0.00 79 1014.9
20260504230818 13 85 0.0 0.0 0.00 0.00 0.00 80 1015.0
20260504230319 13 57 0.0 0.0 0.00 0.00 0.00 79 1015.0
20260504225318 13 221 0.0 0.0 0.00 0.00 0.00 80 1015.0
20260504224817 13 51 0.0 0.0 0.00 0.00 0.00 79 1015.0
20260504224316 13 6 0.0 0.0 0.00 0.00 0.00 79 1015.0
20260504223815 14 252 0.0 0.0 0.00 0.00 0.00 78 1015.0
20260504223315 14 304 0.0 0.0 0.00 0.00 0.00 77 1015.1
20260504222313 15 11 0.0 1.6 0.00 0.00 0.00 75 1014.8
20260504221813 15 84 0.0 1.6 0.00 0.00 0.00 73 1014.9
20260504221312 15 34 0.0 0.0 0.00 0.00 0.00 74 1015.0
20260504220813 15 356 0.0 0.0 0.00 0.00 0.00 74 1014.8
20260504220313 15 39 0.0 0.0 0.00 0.00 0.00 74 1015.0
20260504215812 15 217 0.0 0.0 0.00 0.00 0.00 75 1015.2
20260504215313 14 281 0.0 0.0 0.00 0.00 0.00 75 1015.4
20260504214812 15 37 0.0 0.0 0.00 0.00 0.00 77 1015.3
20260504214313 14 58 0.0 11.3 0.00 0.00 0.00 76 1015.2
20260504213812 14 71 0.0 11.3 0.00 0.00 0.00 78 1015.4
20260504212813 13 87 0.0 0.0 0.00 0.00 0.00 80 1015.4
20260504212312 13 321 0.0 0.0 0.00 0.00 0.00 79 1015.4
20260504211812 13 288 0.0 0.0 0.00 0.00 0.00 80 1015.4
20260504211313 13 65 0.0 0.0 0.00 0.00 0.00 80 1015.5
20260504210812 13 15 0.0 0.0 0.00 0.00 0.00 81 1015.6
20260504210312 13 90 0.0 0.0 0.00 0.00 0.00 80 1015.6
20260504205813 13 62 0.0 0.0 0.00 0.00 0.00 79 1015.6
20260504205312 13 130 0.0 0.0 0.00 0.00 0.00 79 1015.6
20260504204813 13 211 0.0 0.0 0.00 0.00 0.00 79 1015.6
20260504204312 13 322 0.0 0.0 0.00 0.00 0.00 79 1015.6
20260504203812 13 198 0.0 1.6 0.00 0.00 0.00 79 1015.6
20260504203313 13 197 0.0 1.6 0.00 0.00 0.00 79 1015.6
20260504202812 13 285 0.0 0.0 0.00 0.00 0.00 82 1015.5
20260504202310 13 47 0.0 0.0 0.00 0.00 0.00 81 1015.5
20260504201811 13 44 0.0 3.2 0.00 0.00 0.00 81 1015.6